Flag for United Kingdom Weather past 2 weeks in Bristol, England, United Kingdom

55 °F

Drizzle. Low clouds.

Feels Like: 51 °F
Forecast: 56 / 62 °F
Wind: 18 mph from Southeast

Location: Bristol / Lulsgate

Current Time: Oct 5, 2015 at 2:43:46 AM

Latest Report: Oct 5, 2015 at 2:20 AM

Visibility: 2 mi

Pressure: 29.62 "Hg

Humidity: 94%

Dew point: 54 °F

Location of BristolLocation

Historic Weather in Bristol — Graph


Bristol temperature yesterday

Maximum temperature yesterday: 59 °F (at 2:20 PM)
Minimum temperature yesterday: 41 °F (at 6:50 AM)
Average temperature yesterday: 52 °F

Past Weeks' High & Low Weather Summary

High63 °F (Sep 27, 2:20 PM)100% (Sep 20, 3:20 AM)30.60 "Hg (Sep 20, 3:20 AM)
Low41 °F (Sep 26, 5:20 AM)55% (Sep 25, 12:50 PM)29.50 "Hg (Sep 22, 4:50 AM)
Average53 °F83%30.18 "Hg
* Reported Sep 20 1:20 AM — Oct 5 1:20 AM, Bristol, Weather by CustomWeather, © 2015

Note: Actual official high and low records may vary slightly from our data, if they occured in-between our weather recording intervals... More about our weather records


Bristol weather history for previous 24 hours

Time TempWeatherWind HumidityBarometerVisibility
1:20 AM
Mon, Oct 5
55 °FOvercast.15 mph88%29.62 "Hg5 mi
12:50 AM54 °FOvercast.16 mph94%29.65 "Hg4 mi
12:20 AM54 °FPassing clouds.15 mph88%29.68 "Hg4 mi
11:50 PM
Sun, Oct 4
54 °FOvercast.15 mph88%29.71 "Hg4 mi
11:20 PM54 °FOvercast.16 mph88%29.71 "Hg3 mi
10:50 PM54 °FRain. Passing clouds.16 mph88%29.71 "Hg2 mi
10:20 PM54 °FPassing clouds.14 mph88%29.74 "Hg4 mi
9:50 PM54 °FPassing clouds.14 mph88%29.74 "Hg4 mi
9:20 PM54 °FCool.15 mph88%29.74 "Hg4 mi
8:50 PM54 °FCool.15 mph88%29.74 "Hg4 mi
8:20 PM54 °FCool.15 mph82%29.74 "Hg6 mi
7:50 PM54 °FCool.15 mph82%29.77 "HgN/A
7:20 PM54 °FCool.13 mph88%29.80 "HgN/A
6:50 PM55 °FCool.13 mph77%29.80 "HgN/A
6:20 PM55 °FCool.12 mph77%29.83 "HgN/A
5:50 PM57 °FCool.10 mph67%29.83 "HgN/A
5:20 PM57 °FCool.12 mph67%29.83 "HgN/A
4:50 PM59 °FPassing clouds.12 mph68%29.86 "HgN/A
4:20 PM59 °FCool.14 mph68%29.86 "HgN/A
3:50 PM59 °FCool.10 mph72%29.86 "HgN/A
3:20 PM59 °FCool.10 mph72%29.86 "HgN/A
2:50 PM59 °FPartly sunny.12 mph77%29.89 "HgN/A
2:20 PM59 °FPartly sunny.10 mph82%29.89 "Hg3 mi
1:50 PM57 °FPartly sunny.9 mph88%29.89 "Hg3 mi
1:20 PM57 °FScattered clouds.10 mph82%29.89 "Hg3 mi
12:50 PM57 °FScattered clouds.10 mph82%29.92 "Hg3 mi
12:20 PM55 °FPartly sunny.9 mph88%29.92 "Hg2 mi
11:50 AM55 °FHaze.9 mph88%29.92 "Hg3 mi
11:20 AM54 °FPartly sunny.8 mph88%29.95 "Hg4 mi
10:50 AM54 °FCool.10 mph88%29.95 "Hg4 mi
10:20 AM54 °FCool.8 mph82%29.95 "Hg4 mi
9:50 AM52 °FScattered clouds.9 mph88%29.95 "Hg3 mi
9:20 AM50 °FHaze.8 mph94%29.95 "Hg2 mi
8:50 AM50 °FHaze.8 mph94%29.95 "Hg1 mi
8:20 AM48 °FFog.6 mph94%29.95 "Hg1 mi
7:50 AM46 °FFog.6 mph100%29.95 "Hg1 mi
7:20 AM45 °FFog.7 mph93%29.95 "Hg1 mi
6:50 AM41 °FFog.6 mph100%29.95 "Hg0 mi
6:20 AM46 °FFog.5 mph93%29.98 "Hg1 mi
5:20 AM45 °FFog.1 mph100%29.98 "Hg2 mi
4:50 AM46 °FFog.1 mph100%29.95 "Hg1 mi
4:20 AM46 °FFog.3 mph93%29.95 "Hg1 mi
3:50 AM46 °FFog.3 mph100%29.98 "Hg1 mi
3:20 AM48 °FFog.3 mph100%29.98 "Hg1 mi
2:50 AM48 °FFog.3 mph100%29.98 "Hg1 mi
2:20 AM48 °FFog.5 mph94%29.98 "Hg1 mi
Weather by CustomWeather, © 2015

See weather overviewHow to use our weather pages